Home > Weather > Wuppertal > Past weeks

Flag for Germany Past Weather in Wuppertal, North Rhine-Westphalia, Germany — Yesterday and Last 2 Weeks

Now
55 °F

Partly sunny.


Feels Like: 52 °F
Forecast: 53 / 63 °F
Wind: 13 mph from Southwest

Location: Duesseldorf

Current Time: Jun 26, 2016 at 8:30:51 AM

Latest Report: Jun 26, 2016 at 7:50 AM


Visibility: N/A

Pressure: 30.04 "Hg

Humidity: 94%

Dew Point: 54 °F

Location of WuppertalLocation

Past Weather in Wuppertal — Graph

°F

Wuppertal Temperature Yesterday

Maximum temperature yesterday: 68 °F (at 12:20 AM)
Minimum temperature yesterday: 57 °F (at 12:20 PM)
Average temperature yesterday: 62 °F

High & Low Weather Summary for the Past Weeks

 TemperatureHumidityPressure
High91 °F (Jun 23, 3:20 PM)100% (Jun 12, 2:50 AM)30.27 "Hg (Jun 12, 2:50 AM)
Low50 °F (Jun 16, 2:20 AM)44% (Jun 23, 5:20 PM)29.45 "Hg (Jun 14, 6:20 PM)
Average63 °F84%29.88 "Hg
* Reported Jun 11 7:20 AM — Jun 26 7:20 AM, Wuppertal, Weather by CustomWeather, © 2016

Note: Actual official high and low records may vary slightly from our data, if they occured in-between our weather recording intervals... More about our weather records

Advertising

Wuppertal Weather History for the Previous 24 Hours

Scroll right to see more
 ConditionsComfort  
Time TempWeatherWind HumidityBarometerVisibility
7:20 AM
Sun, Jun 26
57 °FScattered clouds.12 mph88%30.04 "HgN/A
6:50 AM55 °FPassing clouds.10 mph94%30.04 "HgN/A
6:20 AM54 °FPassing clouds.10 mph94%30.04 "HgN/A
5:50 AM54 °FPassing clouds.7 mph94%30.01 "HgN/A
5:20 AM54 °FPassing clouds.6 mph94%30.01 "HgN/A
4:50 AM54 °FPassing clouds.6 mph100%30.01 "HgN/A
4:20 AM52 °FCool.6 mph100%30.01 "HgN/A
3:50 AM54 °FClear.7 mph100%30.01 "Hg10 mi
3:20 AM54 °FPassing clouds.5 mph100%30.01 "HgN/A
2:50 AM54 °FClear.6 mph100%30.01 "Hg10 mi
2:20 AM54 °FClear.7 mph100%30.04 "Hg10 mi
1:50 AM54 °FClear.2 mph100%30.04 "Hg10 mi
1:20 AM54 °FPassing clouds.3 mph94%30.04 "HgN/A
12:50 AM54 °FClear.3 mph94%30.04 "Hg10 mi
12:20 AM55 °FClear.5 mph94%30.04 "Hg10 mi
11:50 PM
Sat, Jun 25
57 °FClear.6 mph94%30.01 "Hg10 mi
11:20 PM59 °FPassing clouds.7 mph94%30.01 "HgN/A
10:50 PM59 °FPartly sunny.5 mph94%30.01 "HgN/A
10:20 PM57 °FPartly sunny.5 mph94%30.01 "HgN/A
9:50 PM57 °FPassing clouds.3 mph100%30.01 "HgN/A
9:20 PM59 °FPassing clouds.6 mph94%30.01 "HgN/A
8:50 PM61 °FScattered clouds.3 mph88%30.01 "HgN/A
8:20 PM61 °FPartly sunny.2 mph88%29.98 "HgN/A
7:50 PM61 °FPartly sunny.5 mph88%29.98 "HgN/A
7:20 PM61 °FBroken clouds.8 mph94%29.98 "HgN/A
6:50 PM59 °FPartly sunny.9 mph100%29.98 "HgN/A
6:20 PM59 °FLight rain. Broken clouds.8 mph100%29.98 "HgN/A
5:50 PM59 °FRain. Broken clouds.8 mph100%29.98 "Hg4 mi
5:20 PM59 °FLight rain. More clouds than sun.6 mph94%29.98 "Hg5 mi
4:50 PM61 °FLight rain. More clouds than sun.10 mph94%29.98 "Hg6 mi
4:20 PM61 °FLight rain. Overcast.10 mph94%29.98 "Hg6 mi
3:50 PM61 °FLight rain. Overcast.7 mph94%29.98 "Hg6 mi
3:20 PM61 °FLight rain. More clouds than sun.7 mph94%29.98 "Hg6 mi
2:50 PM63 °FLight rain. Mostly cloudy.9 mph94%29.95 "Hg6 mi
2:20 PM61 °FLight rain. More clouds than sun.3 mph100%29.98 "Hg4 mi
1:50 PM61 °FLight rain. More clouds than sun.3 mph94%29.98 "Hg4 mi
1:20 PM59 °FLight rain. More clouds than sun.2 mph94%29.98 "HgN/A
12:50 PM59 °FLight rain. More clouds than sun.3 mph94%29.98 "Hg5 mi
12:20 PM57 °FRain. Overcast.9 mph94%29.98 "Hg4 mi
11:50 AM59 °FLight rain. More clouds than sun.12 mph94%29.95 "Hg4 mi
11:20 AM59 °FRain. Fog.8 mph100%29.95 "Hg3 mi
10:50 AM61 °FRain. Fog.5 mph94%29.95 "Hg3 mi
10:20 AM61 °FLight rain. Fog.9 mph94%29.95 "Hg3 mi
9:50 AM61 °FLight rain. Fog.8 mph100%29.98 "Hg3 mi
9:20 AM63 °FRain. Fog.6 mph94%29.95 "Hg2 mi
8:50 AM63 °FRain. Fog.6 mph100%29.98 "Hg2 mi
8:20 AM63 °FRain. Fog.9 mph100%29.98 "Hg3 mi
Weather by CustomWeather, © 2016

See weather overviewHow to use our weather pages